Weather History for KLWB - December, 2012

Change the Weather History Date:

Tuesday, December 4, 2012

  Actual Average Record
Temperature  
Mean Temperature 46 °F 34 °F  
Max Temperature 60 °F 45 °F 72 °F (1982)
Min Temperature 32 °F 24 °F 12 °F (2002)
Degree Days  
Heating Degree Days 19    
Month to date heating degree days  
Since 1 July heating degree days  
Cooling Degree Days 0    
Month to date cooling degree days  
Year to date cooling degree days  
Moisture  
Dew Point 39 °F    
Average Humidity 76    
Maximum Humidity 100    
Minimum Humidity 48    
Precipitation  
Precipitation 0.00 in 0.10 in 0.01 in (2010)
Month to date precipitation 0.41  
Year to date precipitation 37.23  
Snow  
Snow 0.00 in - - ()
Month to date snowfall  
Since 1 July snowfall  
Snow Depth -    
Sea Level Pressure  
Sea Level Pressure 30.22 in    
Wind  
Wind Speed 3 mph (SW)    
Max Wind Speed 10 mph    
Max Gust Speed -    
Visibility 6 miles    
Events Fog    
T = Trace of Precipitation, MM = Missing Value Source: NWS Daily Summary

Daily Weather History Graph

Daily Weather History Graph

Search for Another Location

Airport or City:

Trip Planner

Search our weather history database for the weather conditions in past years. The results will help you decide how hot, cold, wet, or windy it might be!

Date:

Astronomy

Dec. 04, 2012 Rise Set
Actual Time 7:21 AM EST 5:02 PM EST
Civil Twilight 6:52 AM EST 5:31 PM EST
Nautical Twilight 6:19 AM EST 6:04 PM EST
Astronomical Twilight 5:48 AM EST 6:35 PM EST
Moon 10:44 PM EST (12/4) 11:18 AM EST (12/4)
Length of Visible Light 10h 38m
Length of Day
9h 40m
Waning Gibbous, 69% of the Moon is Illuminated
Dec 4
Waning Gibbous
Dec 6
Last Quarter
Dec 13
New
Dec 20
First Quarter
Dec 28
Full

Hourly Weather History & Observations

Time (EST) Temp. Windchill Dew Point Humidity Pressure Visibility Wind Dir Wind Speed Gust Speed Precip Events Conditions
12:15 AM 37.4 °F - 35.6 °F 93% 30.27 in 0.2 mi Calm Calm - N/A Fog Fog
12:35 AM 37.4 °F 34.9 °F 35.6 °F 93% 30.27 in 0.2 mi NNE 3.5 mph - N/A Fog Fog
1:15 AM 35.6 °F - 35.6 °F 100% 30.26 in 0.5 mi Calm Calm - N/A Fog Fog
1:35 AM 35.6 °F 32.8 °F 35.6 °F 100% 30.27 in 0.5 mi NNE 3.5 mph - N/A Fog Fog
1:55 AM 35.6 °F - 33.8 °F 93% 30.27 in 0.2 mi Calm Calm - N/A Fog Fog
2:15 AM 35.6 °F - 33.8 °F 93% 30.27 in 0.5 mi Calm Calm - N/A Fog Fog
2:35 AM 35.6 °F - 33.8 °F 93% 30.27 in 0.2 mi Calm Calm - N/A Fog Fog
2:55 AM 35.6 °F - 33.8 °F 93% 30.28 in 0.2 mi Calm Calm - N/A Fog Fog
3:15 AM 35.6 °F - 35.6 °F 100% 30.27 in 0.5 mi Calm Calm - N/A Fog Fog
3:55 AM 33.8 °F 30.8 °F 33.8 °F 100% 30.27 in 0.2 mi NNE 3.5 mph - N/A Fog Fog
4:15 AM 33.8 °F - 32.0 °F 93% 30.27 in 0.2 mi Calm Calm - N/A Fog Fog
4:35 AM 33.8 °F - 32.0 °F 93% 30.27 in 0.2 mi Calm Calm - N/A Fog Fog
4:55 AM 32.0 °F - 32.0 °F 100% 30.27 in 0.2 mi Calm Calm - N/A Fog Fog
5:15 AM 33.8 °F 30.8 °F 32.0 °F 93% 30.27 in 0.2 mi NNE 3.5 mph - N/A Fog Fog
5:35 AM 33.8 °F - 33.8 °F 100% 30.27 in 0.2 mi Calm Calm - N/A Fog Fog
5:55 AM 33.8 °F - 32.0 °F 93% 30.27 in 0.5 mi Calm Calm - N/A Fog Fog
6:15 AM 32.0 °F - 32.0 °F 100% 30.27 in 0.2 mi Calm Calm - N/A Fog Fog
6:35 AM 32.0 °F - 32.0 °F 100% 30.28 in 0.5 mi Calm Calm - N/A Fog Fog
6:55 AM 32.0 °F - 32.0 °F 100% 30.28 in 0.2 mi Calm Calm - N/A Fog Fog
7:15 AM 32.0 °F - 32.0 °F 100% 30.28 in 0.2 mi Calm Calm - N/A Fog Fog
7:35 AM 32.0 °F - 32.0 °F 100% 30.28 in 0.5 mi Calm Calm - N/A Fog Fog
7:55 AM 32.0 °F - 32.0 °F 100% 30.28 in 0.5 mi Calm Calm - N/A Fog Fog
8:15 AM 33.8 °F - 32.0 °F 93% 30.29 in 0.2 mi Calm Calm - N/A Fog Fog
8:35 AM 33.8 °F 29.6 °F 32.0 °F 93% 30.29 in 0.2 mi NNE 4.6 mph - N/A Fog Fog
8:55 AM 33.8 °F - 33.8 °F 100% 30.29 in 1.5 mi Calm Calm - N/A   Mostly Cloudy
9:15 AM 35.6 °F - 35.6 °F 100% 30.29 in 0.8 mi Calm Calm - N/A   Mostly Cloudy
9:35 AM 37.4 °F - 35.6 °F 93% 30.29 in 0.2 mi Calm Calm - N/A Fog Fog
9:55 AM 39.2 °F - 37.4 °F 93% 30.29 in 7.0 mi Calm Calm - N/A   Scattered Clouds
10:15 AM 41.0 °F - 41.0 °F 100% 30.29 in 10.0 mi Calm Calm - N/A   Clear
10:55 AM 46.4 °F - 44.6 °F 93% 30.27 in 10.0 mi Calm Calm - N/A   Clear
11:15 AM 50.0 °F - 44.6 °F 82% 30.26 in 10.0 mi Calm Calm - N/A   Clear
11:35 AM 53.6 °F - 44.6 °F 72% 30.25 in 10.0 mi SW 5.8 mph - N/A   Clear
11:55 AM 55.4 °F - 42.8 °F 63% 30.24 in 10.0 mi SW 6.9 mph - N/A   Clear
12:15 PM 57.2 °F - 42.8 °F 59% 30.23 in 10.0 mi SW 8.1 mph - N/A   Clear
12:35 PM 57.2 °F - 42.8 °F 59% 30.22 in 10.0 mi WSW 9.2 mph - N/A   Clear
12:55 PM 59.0 °F - 42.8 °F 55% 30.21 in 10.0 mi SW 9.2 mph - N/A   Clear
1:15 PM 59.0 °F - 42.8 °F 55% 30.20 in 10.0 mi WSW 6.9 mph - N/A   Scattered Clouds
1:35 PM 60.8 °F - 42.8 °F 52% 30.19 in 10.0 mi SW 8.1 mph - N/A   Mostly Cloudy
1:55 PM 60.8 °F - 42.8 °F 52% 30.18 in 10.0 mi SW 10.4 mph - N/A   Scattered Clouds
2:15 PM 60.8 °F - 42.8 °F 52% 30.18 in 10.0 mi SW 10.4 mph - N/A   Clear
2:35 PM 60.8 °F - 42.8 °F 52% 30.18 in 10.0 mi SW 8.1 mph - N/A   Clear
2:55 PM 60.8 °F - 41.0 °F 48% 30.17 in 10.0 mi SW 10.4 mph - N/A   Mostly Cloudy
3:15 PM 60.8 °F - 42.8 °F 52% 30.17 in 10.0 mi SW 10.4 mph - N/A   Overcast
3:35 PM 60.8 °F - 42.8 °F 52% 30.17 in 10.0 mi SW 8.1 mph - N/A   Overcast
3:55 PM 60.8 °F - 42.8 °F 52% 30.16 in 10.0 mi SW 9.2 mph - N/A   Overcast
4:15 PM 59.0 °F - 42.8 °F 55% 30.17 in 10.0 mi SSW 5.8 mph - N/A   Mostly Cloudy
4:35 PM 59.0 °F - 41.0 °F 51% 30.16 in 10.0 mi SSW 5.8 mph - N/A   Mostly Cloudy
4:55 PM 55.4 °F - 41.0 °F 58% 30.16 in 10.0 mi SSW 5.8 mph - N/A   Scattered Clouds
5:15 PM 53.6 °F - 41.0 °F 62% 30.17 in 10.0 mi SSW 5.8 mph - N/A   Clear
5:35 PM 53.6 °F - 41.0 °F 62% 30.17 in 10.0 mi SW 6.9 mph - N/A   Clear
5:55 PM 53.6 °F - 41.0 °F 62% 30.17 in 10.0 mi SW 6.9 mph - N/A   Clear
6:15 PM 51.8 °F - 41.0 °F 67% 30.17 in 10.0 mi SSW 4.6 mph - N/A   Mostly Cloudy
6:35 PM 53.6 °F - 41.0 °F 62% 30.17 in 10.0 mi South 5.8 mph - N/A   Overcast
6:55 PM 53.6 °F - 41.0 °F 62% 30.17 in 10.0 mi SW 6.9 mph - N/A   Overcast
7:15 PM 53.6 °F - 42.8 °F 67% 30.16 in 10.0 mi SSW 5.8 mph - N/A   Overcast
7:35 PM 53.6 °F - 42.8 °F 67% 30.15 in 10.0 mi SW 5.8 mph - N/A   Overcast
7:55 PM 55.4 °F - 42.8 °F 63% 30.16 in 10.0 mi WSW 6.9 mph - N/A   Overcast
8:15 PM 55.4 °F - 42.8 °F 63% 30.15 in 10.0 mi WSW 6.9 mph - N/A   Overcast
8:35 PM 55.4 °F - 42.8 °F 63% 30.16 in 10.0 mi SW 9.2 mph - N/A   Overcast
8:55 PM 55.4 °F - 41.0 °F 58% 30.17 in 10.0 mi SW 8.1 mph - N/A   Overcast
9:15 PM 55.4 °F - 42.8 °F 63% 30.16 in 10.0 mi SSW 5.8 mph - N/A   Overcast
9:35 PM 53.6 °F - 42.8 °F 67% 30.15 in 10.0 mi SSW 6.9 mph - N/A   Overcast
9:55 PM 53.6 °F - 42.8 °F 67% 30.15 in 10.0 mi SW 6.9 mph - N/A   Overcast
10:15 PM 53.6 °F - 41.0 °F 62% 30.14 in 10.0 mi SW 6.9 mph - N/A   Overcast
10:35 PM 53.6 °F - 42.8 °F 67% 30.14 in 10.0 mi SSW 5.8 mph - N/A   Overcast
10:55 PM 53.6 °F - 42.8 °F 67% 30.13 in 10.0 mi SSW 5.8 mph - N/A   Overcast
11:15 PM 53.6 °F - 42.8 °F 67% 30.14 in 10.0 mi SSW 4.6 mph - N/A   Overcast
11:35 PM 53.6 °F - 41.0 °F 62% 30.13 in 10.0 mi SSW 4.6 mph - N/A   Overcast
11:55 PM 53.6 °F - 41.0 °F 62% 30.13 in 10.0 mi SW 4.6 mph - N/A   Overcast